SL-12 R/B(2)

Last updated on Mon Sep 21 2026 00:02:08 GMT+0000 (Coordinated Universal Time)

1 15772U 85042D 26263.47896727 .00000064 00000+0 50384-4 0 9993 2 15772 71.1092 36.1819 0035242 186.0277 237.3969 14.22021840142087
UTC large
Height (km)
Speed (km/s)
/
Latitude / Longitude
Inclination (degrees)
Orbital Period (minutes)
Azimuth
Elevation
Range (km)
Doppler Factor

Next 0 passes for location: London (51.5072 / 0.1276)

No passes found over London.
SL-12 R/B(2)